Weather History for Cape Girardeau, MO

Change the Weather History Date:

Wednesday, February 13, 2013

  Actual Average Record
Temperature  
Mean Temperature 43 °F 37 °F  
Max Temperature 49 °F 47 °F 79 °F (1962)
Min Temperature 36 °F 28 °F 5 °F (1980)
Degree Days  
Heating Degree Days 22 28  
Month to date heating degree days 329 380  
Since 1 July heating degree days 2828 3118  
Cooling Degree Days 0 0  
Month to date cooling degree days 0 0  
Year to date cooling degree days 0 0  
Moisture  
Dew Point 35 °F    
Average Humidity 74    
Maximum Humidity 86    
Minimum Humidity 61    
Precipitation  
Precipitation 0.01 in 0.13 in 3.16 in (1989)
Month to date precipitation 0.71 1.62  
Year to date precipitation 4.29 5.09  
Sea Level Pressure  
Sea Level Pressure 29.90 in    
Wind  
Wind Speed 9 mph (WNW)    
Max Wind Speed 16 mph    
Max Gust Speed 20 mph    
Visibility 8 miles    
Events Rain    
T = Trace of Precipitation, MM = Missing Value Source: NWS Daily Summary

Daily Weather History Graph

Daily Weather History Graph

Search for Another Location

Airport:

Trip Planner

Search our weather history database for the weather conditions in past years. The results will help you decide how hot, cold, wet, or windy it might be!

Date:

Astronomy

Feb. 13, 2013 Rise Set
Actual Time 6:49 AM CST 5:36 PM CST
Civil Twilight 6:22 AM CST 6:03 PM CST
Nautical Twilight 5:51 AM CST 6:33 PM CST
Astronomical Twilight 5:21 AM CST 7:03 PM CST
Moon 8:24 AM CST (2/13) 9:32 PM CST (2/13)
Length of Visible Light 11h 40m
Length of Day
10h 47m
Waxing Crescent, 14% of the Moon is Illuminated
Feb 13
Waxing Crescent
Feb 17
First Quarter
Feb 25
Full
Mar 4
Last Quarter
Mar 11
New

Hourly Weather History & Observations

Time (CST) Temp. Windchill Dew Point Humidity Pressure Visibility Wind Dir Wind Speed Gust Speed Precip Events Conditions
12:53 AM 39.9 °F - 35.1 °F 83% 29.90 in 10.0 mi Calm Calm - 0.00 in   Overcast
1:53 AM 41.0 °F 37.1 °F 34.0 °F 76% 29.88 in 10.0 mi NNW 5.8 mph - N/A   Overcast
2:53 AM 41.0 °F 37.1 °F 33.1 °F 73% 29.88 in 10.0 mi NNW 5.8 mph - N/A   Overcast
3:37 AM 39.2 °F 32.0 °F 33.8 °F 81% 29.87 in 10.0 mi North 11.5 mph - 0.00 in Rain Light Rain
3:53 AM 39.9 °F 32.1 °F 34.0 °F 79% 29.88 in 9.0 mi North 13.8 mph - 0.00 in Rain Light Rain
4:44 AM 37.4 °F 29.8 °F 33.8 °F 87% 29.87 in 7.0 mi North 11.5 mph - 0.00 in Rain Light Rain
4:53 AM 37.9 °F 30.5 °F 34.0 °F 86% 29.88 in 7.0 mi North 11.5 mph - 0.00 in Rain Light Rain
5:02 AM 37.4 °F 31.4 °F 33.8 °F 87% 29.87 in 7.0 mi North 8.1 mph - 0.00 in Rain Light Rain
5:15 AM 37.4 °F 32.1 °F 33.8 °F 87% 29.88 in 6.0 mi North 6.9 mph - 0.00 in Rain Light Rain
5:53 AM 37.0 °F 31.0 °F 34.0 °F 89% 29.88 in 6.0 mi North 8.1 mph - 0.01 in Rain Light Rain
6:32 AM 35.6 °F 29.9 °F 33.8 °F 93% 29.88 in 6.0 mi North 6.9 mph - 0.00 in   Overcast
6:53 AM 36.0 °F 32.1 °F 34.0 °F 93% 29.89 in 6.0 mi North 4.6 mph - 0.00 in   Overcast
7:43 AM 37.4 °F 32.1 °F 33.8 °F 87% 29.91 in 4.0 mi NNW 6.9 mph - N/A   Overcast
7:53 AM 37.0 °F 31.0 °F 34.0 °F 89% 29.92 in 3.0 mi NNW 8.1 mph - N/A   Overcast
8:26 AM 37.4 °F 32.1 °F 33.8 °F 87% 29.93 in 3.0 mi North 6.9 mph - 0.00 in   Overcast
8:46 AM 37.4 °F 32.1 °F 35.6 °F 93% 29.94 in 4.0 mi North 6.9 mph - 0.00 in   Overcast
8:53 AM 37.9 °F 33.5 °F 34.0 °F 86% 29.95 in 4.0 mi NNW 5.8 mph - 0.00 in Rain Light Rain
9:53 AM 39.0 °F 34.0 °F 35.1 °F 86% 29.95 in 5.0 mi NNW 6.9 mph - 0.00 in Rain Light Rain
10:53 AM 39.9 °F 36.7 °F 36.0 °F 86% 29.95 in 9.0 mi WSW 4.6 mph - 0.00 in   Overcast
11:53 AM 43.0 °F 40.3 °F 37.0 °F 80% 29.94 in 10.0 mi WSW 4.6 mph - N/A   Mostly Cloudy
12:53 PM 46.0 °F 41.4 °F 36.0 °F 68% 29.91 in 10.0 mi SSW 9.2 mph - N/A   Clear
1:53 PM 48.0 °F - 36.0 °F 63% 29.90 in 10.0 mi SW 11.5 mph 16.1 mph N/A   Clear
2:53 PM 48.0 °F - 37.0 °F 66% 29.89 in 10.0 mi SW 8.1 mph - N/A   Scattered Clouds
3:53 PM 48.0 °F - 37.0 °F 66% 29.88 in 10.0 mi SSW 13.8 mph - N/A   Clear
4:53 PM 46.9 °F - 37.9 °F 71% 29.88 in 10.0 mi SSW 9.2 mph - N/A   Clear
5:53 PM 44.1 °F 39.0 °F 37.0 °F 76% 29.89 in 10.0 mi SSW 9.2 mph - N/A   Clear
6:53 PM 44.1 °F 37.1 °F 37.0 °F 76% 29.90 in 10.0 mi South 15.0 mph - N/A   Clear
7:53 PM 43.0 °F 36.8 °F 37.0 °F 80% 29.91 in 10.0 mi South 11.5 mph - N/A   Clear
8:53 PM 42.1 °F 35.2 °F 36.0 °F 79% 29.92 in 10.0 mi SSW 12.7 mph - N/A   Clear
9:53 PM 41.0 °F 35.8 °F 37.0 °F 86% 29.93 in 10.0 mi SSW 8.1 mph - N/A   Clear
10:53 PM 39.9 °F - 36.0 °F 86% 29.94 in 10.0 mi Calm Calm - N/A   Clear
11:53 PM 37.9 °F 33.5 °F 35.1 °F 89% 29.95 in 10.0 mi South 5.8 mph - N/A   Clear